SCP
0 0 0 0 0 0 -0 0 0 0 0 0 0 0 -0 0 0 0 0 -0 -0 -0 -0 -0 -0 -0 -0 -0 0 -0 -0 -0 -0 -0 -0 -0 -0 -0 -0 -0 -0 -0 -0 -0 -0 -0 -0 -0 -0
0 0 0 0 0 0 0 0 0 0 0 0 0 0 0 0 -0 -0 0 0 -0 0 -0 -0 -0 -0 -0 -0 0 -0 -0 -0 -0 -0 -0 -0 -0 -0 -0 -0 -0 -0 -0 -0 -0 -0 -0 -0 -0
0 0 0 0 0 0 0 0 0 0 0 0 0 0 0 0 -0 -0 -0 -0 -0 -0 -0 -0 -0 -0 -0 -0 0 -0 -0 -0 -0 -0 -0 -0 -0 -0 -0 -0 -0 -0 -0 -0 -0 -0 -0 -0 -0
0 0 0 0 0 0 0 0 0 0 0 0 0 0 0 0 -0 -0 -0 -0 -0 -0 -0 -0 -0 -0 0 0 0 -0 -0 -0 -0 -0 -0 -0 -0 -0 -0 -0 -0 -0 -0 -0 -0 -0 -0 -0 -0
0 0 0 0 0 0 0 0 0 0 0 0 0 0 0 0 0 -0 -0 -0 -0 -0 -0 -0 -0 0 0 0 -0 -0 -0 -0 -0 -0 -0 -0 -0 -0 -0 -0 -0 -0 -0 -0 -0 -0 -0 -0 -0
0 0 0 0 0 0 0 0 0 0 0 0 0 0 0 0 0 -0 -0 -0 -0 -0 -0 0 0 0 -0 -0 -0 -0 -0 -0 -0 -0 -0 -0 0 -0 -0 -0 -0 -0 -0 -0 -0 -0 -0 -0 -0
0 0 0 0 0 0 0 0 0 0 0 0 0 0 0 0 -0 -0 -0 -0 -0 -0 0 0 0 0 0 -0 -0 -0 -0 -0 -0 -0 -0 -0 0 0 -0 -0 -0 -0 -0 -0 -0 -0 -0 -0 -0
0 0 0 0 0 0 0 0 0 0 0 0 0 0 -0 -0 -0 -0 0 -0 -0 -0 -0 0 0 0 0 0 -0 -0 0 -0 -0 -0 -0 -0 0 0 -0 -0 -0 -0 -0 -0 -0 -0 -0 -0 -0
0 0 0 0 0 0 0 0 0 0 0 0 0 0 -0 -0 -0 -0 0 0 -0 0 0 0 0 0 0 0 -0 -0 -0 -0 -0 -0 -0 0 -0 0 0 -0 -0 -0 -0 -0 -0 -0 -0 -0 0
0 0 0 0 0 0 0 0 0 0 0 0 0 -0 -0 -0 -0 -0 -0 0 0 0 0 0 -0 0 0 0 0 0 0 0 0 -0 -0 -0 0 0 0 0 -0 -0 -0 -0 -0 -0 0 0 0
0 0 0 0 0 0 0 0 0 0 0 0 -0 -0 -0 -0 -0 -0 -0 0 0 0 0 0 0 0 0 0 -0 0 -0 -0 -0 -0 0 0 0 0 0 0 0 -0 -0 -0 0 0 0 0 0
0 0 0 0 0 0 0 0 0 0 0 0 -0 -0 -0 -0 -0 -0 -0 0 0 0 0 0 0 0 0 0 0 0 0 0 0 0 0 0 0 -0 0 0 -0 0 0 0 0 0 0 0 0
0 0 0 0 0 0 0 0 0 0 0 0 -0 -0 -0 -0 -0 -0 -0 0 0 0 0 0 0 0 0 0 0 0 0 0 0 0 0 0 0 0 0 0 0 0 0 0 0 0 0 0 0
0 0 0 0 0 0 0 0 0 0 0 0 0 0 0 -0 -0 -0 -0 0 0 0 0 0 0 0 0 0 0 0 0 0 0 0 0 0 0 0 0 0 0 0 0 0 0 0 0 0 0
0 0 0 0 0 0 0 0 0 0 0 0 0 0 0 0 0 0 -0 0 0 0 0 0 0 0 0 0 0 0 0 0 0 0 0 0 0 0 0 0 0 0 0 0 0 0 0 0 0
0 0 0 0 0 0 0 0 0 0 0 0 0 0 0 0 0 0 0 0 0 0 -0 0 0 0 0 0 0 0 0 0 0 0 0 0 0 0 0 0 0 0 0 0 0 0 0 0 0
0 0 0 0 0 0 0 0 0 0 0 0 0 0 0 0 0 0 0 0 0 0 0 0 0 0 0 0 0 0 0 0 0 0 0 0 0 0 0 0 0 0 0 0 0 0 0 0 0
0 0 0 0 0 0 0 0 0 0 0 0 0 0 0 0 0 0 0 0 0 0 0 0 0 0 0 0 0 0 0 0 0 0 0 0 0 0 0 0 0 0 0 0 0 0 0 0 0
0 0 0 0 0 0 0 0 0 0 0 0 0 0 0 0 0 0 0 0 0 0 0 0 0 0 0 0 0 0 0 0 0 0 0 0 0 0 0 0 0 0 0 0 0 0 0 0 0
0 0 0 0 0 0 0 0 0 0 0 0 0 0 0 0 0 0 0 0 0 0 0 0 0 0 0 0 0 0 0 0 0 0 0 0 0 0 0 0 0 0 0 0 0 0 0 0 0
0 0 0 0 0 0 0 -0 0 0 0 0 0 0 0 0 0 0 0 0 0 0 0 0 0 0 0 0 0 0 0 0 0 0 0 0 0 0 0 0 0 0 0 0 0 0 0 0 0
0 0 0 0 0 0 0 0 0 0 0 -0 -0 -0 0 0 0 0 0 0 0 0 0 0 0 0 0 0 0 0 0 0 0 0 0 0 0 0 0 0 0 0 0 0 0 0 0 0 0
0 0 0 0 0 0 0 0 -0 0 0 -0 -0 0 0 0 0 0 0 0 0 0 0 0 0 0 0 0 0 0 0 0 0 0 0 0 0 0 0 0 0 0 0 0 0 0 0 0 0
0 0 0 0 0 0 0 0 -0 0 0 0 0 0 0 0 0 0 0 0 0 0 0 0 0 0 0 0 0 0 0 0 0 0 0 0 0 0 0 0 0 0 0 0 0 0 0 0 0
0 0 0 0 0 0 0 0 0 0 0 0 0 0 0 0 0 0 0 0 0 0 0 0 0 0 0 0 0 0 0 0 0 0 0 0 0 0 0 0 0 0 0 0 0 0 0 0 0
0 0 0 0 0 0 0 0 0 0 0 0 0 0 0 0 0 0 0 0 0 0 0 0 0 0 0 0 0 0 0 0 0 0 0 0 0 0 0 0 0 0 0 0 0 0 0 0 0
0 0 0 0 0 0 0 0 0 0 0 0 0 0 0 0 0 0 0 0 0 0 0 0 0 0 0 0 0 0 0 0 0 0 0 0 0 0 0 0 0 0 0 0 0 0 0 0 0
0 0 0 0 0 0 0 0 0 0 0 0 0 0 0 0 0 0 0 0 0 0 0 0 0 0 0 0 0 0 0 0 0 0 0 0 0 0 0 0 0 0 0 0 0 0 0 0 0
0 0 0 0 0 0 0 0 0 0 0 0 0 0 0 0 0 0 0 0 0 0 0 0 0 0 0 0 0 0 0 0 0 0 0 0 0 0 0 0 0 0 0 0 0 0 0 0 0
0 0 0 0 0 0 0 0 0 0 0 0 0 0 0 0 0 0 0 0 0 0 0 0 0 0 0 0 0 0 0 0 0 0 0 0 0 0 0 0 0 0 0 0 0 0 0 0 0
Wind_Speed_500mb
17 16 14 9 3 5 7 7 12 14 11 9 17 16 25 30 11 13 38 30 28 29 23 18 18 17 17 20 19 20 20 18 13 11 12 17 25 26 32 30 36 36 37 35 33 31 31 31 31
15 16 9 9 5 8 6 14 9 17 20 16 14 4 16 12 14 34 35 22 32 20 19 18 16 15 17 21 23 21 17 14 12 19 21 26 24 22 36 33 31 37 34 34 34 33 33 33 33
14 18 9 4 7 6 7 3 23 27 20 15 9 15 13 10 27 31 33 32 27 26 19 20 16 15 20 23 21 21 19 12 22 28 34 32 29 26 34 34 28 33 33 34 34 34 35 35 36
19 7 10 4 16 8 11 12 36 24 6 5 7 21 16 12 24 22 46 36 29 23 22 21 20 22 23 20 21 21 23 28 30 32 34 34 30 24 34 33 29 28 31 34 33 35 37 38 37
14 13 5 10 19 11 11 13 34 16 24 16 7 14 18 19 16 35 40 38 32 27 21 22 22 28 24 19 17 17 27 26 27 29 31 30 31 26 29 27 28 29 30 32 32 33 35 35 36
11 10 7 10 18 12 12 7 13 18 18 18 7 21 12 16 32 43 34 37 31 27 26 25 27 31 26 20 13 17 27 26 27 27 25 28 30 28 25 27 27 28 28 29 29 30 31 33 35
8 11 12 19 16 12 10 12 14 16 16 15 9 12 15 26 40 43 45 31 31 26 23 27 28 31 28 23 18 15 24 25 23 21 21 24 26 25 24 27 27 25 26 26 27 28 30 31 31
15 11 20 19 18 1 13 16 5 14 13 20 7 12 13 42 51 44 45 29 30 25 20 27 28 30 28 24 20 20 20 25 25 20 18 22 23 22 22 23 24 23 23 23 24 25 26 28 27
16 8 13 24 13 1 21 9 1 14 17 9 5 3 11 46 59 49 50 33 32 31 26 24 28 26 28 25 22 21 21 24 23 22 21 21 18 17 20 20 20 20 20 20 20 20 22 23 23
7 7 15 12 12 9 23 17 22 8 20 11 10 14 20 54 65 58 56 51 44 40 31 29 31 26 23 28 25 22 22 22 22 21 20 17 13 16 16 16 16 16 16 17 17 15 14 15 16
5 20 13 4 14 9 2 11 25 13 14 27 34 35 36 60 61 63 50 51 56 51 39 33 34 34 27 28 27 25 24 22 22 22 19 17 16 14 14 13 14 12 12 13 11 10 13 12 11
7 9 11 4 3 3 4 6 12 20 2 4 37 30 45 59 56 60 54 44 48 50 44 38 36 37 30 28 26 24 22 23 23 21 21 19 16 11 11 9 10 9 8 8 7 7 7 9 10
12 7 11 2 1 6 6 9 11 25 23 9 34 35 42 53 50 44 49 43 42 46 46 43 42 37 35 31 28 25 26 26 25 24 20 17 15 13 11 9 7 5 5 4 4 4 4 6 6
29 24 14 10 1 6 5 11 5 20 21 22 30 33 37 47 52 48 52 50 47 46 52 53 47 42 37 36 33 32 30 28 25 22 21 18 15 14 13 11 8 7 7 7 7 4 2 3 4
11 14 4 13 12 6 5 8 11 22 28 30 33 31 32 40 49 54 54 57 52 52 57 57 56 53 49 45 41 36 34 31 26 24 23 21 18 16 15 14 11 9 9 9 9 8 6 3 2
17 6 8 11 17 10 13 21 25 37 29 32 35 38 39 38 53 55 49 55 55 55 54 59 59 59 54 51 48 42 38 35 32 32 28 25 23 22 20 19 16 14 14 13 13 9 4 3 4
10 7 12 13 40 9 14 9 14 16 24 30 40 43 47 42 40 45 54 53 59 60 60 54 57 57 54 51 47 43 39 39 37 34 33 30 28 27 24 23 21 19 19 18 13 8 7 6 6
20 9 19 16 19 12 13 18 10 26 25 27 31 45 47 46 50 51 59 61 60 58 60 57 57 57 54 52 48 48 46 43 42 41 38 36 34 33 30 23 22 25 26 23 18 15 11 8 9
33 24 18 24 18 13 25 25 25 33 28 28 29 35 46 48 43 51 53 59 57 59 63 60 60 60 59 59 60 58 57 54 51 48 44 42 40 37 31 22 22 22 25 26 21 22 17 15 14
18 27 20 15 12 8 14 28 27 32 37 44 42 38 38 40 44 50 55 60 63 68 68 68 68 63 63 63 61 60 57 57 51 49 49 47 48 40 35 30 30 29 24 30 30 23 21 23 20
29 27 17 11 10 6 8 13 18 18 48 54 58 49 44 44 44 46 52 60 63 71 72 75 72 68 69 67 63 60 57 56 57 57 57 56 54 46 41 38 36 34 35 32 30 29 32 30 27
10 3 13 22 13 4 12 10 14 27 37 38 56 63 66 61 51 58 59 62 66 72 73 71 72 73 71 69 70 72 73 73 69 65 61 60 57 51 47 43 45 43 44 45 38 42 40 39 37
4 19 19 14 10 7 10 5 10 3 25 37 49 62 65 74 70 62 64 70 64 67 74 77 79 77 74 75 75 76 76 74 70 66 63 61 55 54 53 47 42 48 47 47 47 50 46 43 40
25 25 22 13 7 5 14 11 9 9 9 8 25 62 73 72 69 72 71 68 66 65 71 78 83 81 77 78 79 81 81 79 75 72 67 65 60 61 61 56 53 49 43 45 48 48 48 45 47
5 17 6 3 3 10 3 12 24 15 16 2 13 21 32 64 68 69 75 72 69 70 70 74 78 83 85 85 85 86 84 82 82 78 74 73 68 66 68 64 61 56 53 49 44 47 50 55 57
32 5 10 14 9 5 3 14 10 12 19 21 28 29 27 9 55 62 65 69 71 73 68 72 78 81 85 85 90 89 88 87 87 84 81 79 81 76 68 67 67 67 62 54 56 50 49 53 55
12 8 5 12 4 6 10 11 13 23 15 17 16 12 14 14 8 17 44 53 63 68 72 70 73 80 84 87 88 89 90 89 90 88 83 85 85 82 74 70 73 77 73 69 67 62 56 52 53
13 16 8 2 10 8 10 8 11 9 11 13 12 23 20 12 17 24 28 38 45 51 58 65 73 76 78 82 87 89 91 91 91 89 88 89 88 80 77 73 71 77 82 78 75 69 66 61 54
10 11 8 11 7 8 0 9 7 14 10 5 15 11 13 10 11 16 19 22 27 33 41 48 56 66 73 77 81 86 91 92 91 92 90 89 82 77 80 80 73 71 84 86 85 74 74 63 57
8 15 8 9 9 6 7 11 9 14 13 13 21 13 8 17 19 20 25 20 10 9 24 35 43 50 55 66 74 77 84 84 86 89 90 89 82 80 80 80 79 69 73 88 89 79 80 63 64
Wind_Direction_500mb
331 350 344 332 294 194 235 99 81 92 99 39 64 28 94 56 23 108 126 167 161 155 150 144 116 108 117 139 145 132 119 120 108 156 124 96 99 95 97 93 89 85 81 80 78 80 80 81 83
328 349 356 300 251 252 58 117 143 95 98 108 87 39 56 80 70 131 137 149 144 141 141 128 111 111 123 136 156 159 155 144 143 111 129 106 100 100 100 93 88 87 83 82 80 80 81 82 81
311 329 301 228 262 308 108 200 98 99 126 144 108 52 42 83 120 138 147 141 146 159 146 127 123 119 114 116 131 155 169 153 115 114 109 110 102 100 117 102 97 89 89 84 83 82 81 81 81
336 277 263 265 267 64 57 103 112 123 130 169 115 92 87 97 125 159 139 156 157 160 141 135 128 119 110 103 102 107 111 117 120 114 119 115 113 105 111 107 99 91 91 87 83 80 79 79 80
296 272 267 215 258 105 76 32 139 172 153 164 221 123 97 142 142 150 152 141 174 156 151 135 125 120 117 100 99 115 117 114 120 111 120 122 112 107 117 108 97 90 86 84 83 81 79 80 80
283 248 250 240 249 119 101 155 173 176 143 110 170 106 132 174 150 151 152 161 179 157 160 142 136 133 135 129 100 111 120 129 109 109 114 119 115 112 106 112 100 91 87 87 85 84 82 79 77
253 273 249 271 277 118 142 167 209 166 143 165 119 99 144 168 156 163 158 179 165 166 168 149 148 148 145 142 130 117 112 113 113 120 110 116 123 117 109 104 103 95 92 91 87 82 80 78 78
283 261 268 264 269 169 112 156 224 155 103 115 190 152 166 171 161 171 162 177 170 173 175 162 154 162 161 155 139 131 137 133 127 116 113 105 107 107 105 100 98 92 90 89 87 84 83 79 76
292 249 232 244 244 170 142 143 178 81 113 107 152 90 194 173 166 162 162 167 172 171 176 168 157 162 176 169 155 142 133 138 135 126 120 112 115 111 109 104 100 96 96 94 94 90 85 85 76
257 250 229 299 315 5 146 192 152 145 145 142 114 131 165 162 169 170 174 179 170 169 177 181 157 170 175 170 164 155 149 144 143 139 130 126 125 110 112 114 111 109 107 101 100 94 89 81 70
198 244 305 21 12 41 71 208 153 201 175 201 172 167 164 165 177 175 174 192 185 173 177 185 179 178 179 164 168 163 166 159 164 160 151 154 147 137 129 118 113 119 119 112 106 98 79 75 76
215 260 314 66 296 280 306 286 189 212 106 347 184 200 176 176 178 185 181 196 189 181 178 182 189 183 180 175 174 169 176 174 174 172 168 164 160 148 131 129 119 129 116 111 112 103 94 86 79
224 178 218 180 212 262 276 271 233 218 232 130 164 188 184 182 184 190 185 195 196 189 183 187 194 187 184 185 181 187 187 185 182 183 177 170 164 170 170 158 163 136 150 155 148 136 92 82 79
213 181 178 195 301 214 241 228 154 249 216 160 185 190 193 188 186 189 191 195 200 198 188 193 196 187 194 189 188 198 199 194 197 195 189 186 188 190 192 188 188 191 204 200 199 193 166 106 53
183 164 151 217 228 225 205 259 206 238 204 172 187 195 199 195 191 198 199 196 205 205 197 201 195 196 190 192 191 207 205 205 205 206 206 208 212 213 214 213 218 220 214 203 184 164 151 135 357
168 165 172 208 179 216 157 242 227 236 187 188 193 195 200 210 199 200 203 206 207 202 209 211 205 202 206 203 202 202 205 208 210 214 217 218 224 228 230 231 230 230 214 204 190 175 189 205 303
210 177 190 150 197 147 178 229 216 162 188 211 206 205 200 204 211 208 201 216 212 208 212 213 211 211 212 213 208 216 216 215 217 221 226 226 228 235 238 242 241 236 225 218 206 216 225 257 269
156 192 211 205 182 185 190 247 169 192 193 222 234 208 201 200 211 213 203 212 215 216 215 218 213 213 214 216 213 216 224 227 225 229 234 236 235 238 240 245 257 245 231 215 221 234 246 267 288
175 190 184 200 175 154 219 235 235 227 184 205 228 246 206 209 210 214 218 220 210 213 216 220 217 214 213 214 214 216 222 224 224 229 233 237 242 236 237 248 261 245 237 221 233 235 252 255 261
224 188 204 89 146 178 224 240 236 231 239 224 213 219 239 211 208 214 213 218 215 216 216 218 222 219 220 221 222 223 226 230 234 236 237 238 242 242 241 235 249 245 241 236 239 246 253 259 255
209 204 190 131 146 270 338 270 245 242 227 236 233 219 221 227 215 213 215 224 218 217 221 221 225 225 225 226 225 227 230 234 236 235 238 239 241 242 242 241 242 245 241 242 252 254 254 258 255
193 6 92 119 154 223 169 287 226 220 222 219 225 225 218 214 211 210 215 222 225 226 219 224 227 228 230 229 228 230 232 233 239 242 243 242 244 241 239 251 245 241 240 242 251 251 250 252 255
180 100 97 95 86 4 182 276 253 301 212 220 219 226 224 221 214 209 214 225 232 226 220 221 226 231 230 233 234 234 236 239 242 245 245 244 244 237 239 242 246 241 240 249 252 252 249 248 257
150 99 72 62 78 260 196 183 260 226 220 228 204 220 225 226 225 224 221 225 232 230 226 225 228 230 230 233 235 237 239 240 240 242 242 246 243 237 237 238 240 239 243 250 251 254 254 255 261
308 158 88 104 179 226 109 211 245 277 282 294 290 265 248 229 227 224 224 222 229 229 229 228 228 231 231 231 236 240 240 242 246 247 247 248 245 239 236 238 238 233 241 246 248 256 258 257 261
188 239 144 181 184 188 312 234 242 254 260 258 257 249 261 332 225 225 227 228 230 234 234 234 233 235 234 234 236 240 244 244 245 248 249 247 252 252 248 243 242 239 240 242 241 252 256 257 256
184 187 78 107 39 67 203 262 289 264 272 253 262 239 247 262 223 215 229 237 233 235 240 241 241 241 240 239 240 240 243 246 246 248 247 247 251 254 252 245 243 242 243 241 243 245 248 254 259
166 141 92 305 137 227 242 240 228 231 247 233 210 228 219 238 252 243 247 248 242 244 244 244 248 249 248 246 243 245 246 248 251 250 247 247 248 247 250 250 248 244 241 242 243 242 240 243 248
151 177 187 143 172 170 253 256 229 189 163 134 155 135 160 180 200 213 227 241 240 239 245 250 247 248 250 250 247 248 249 249 250 252 252 247 242 239 242 251 252 249 241 240 239 238 239 240 240
233 166 166 164 224 220 132 270 183 158 168 143 133 121 138 109 93 90 69 49 21 303 271 264 265 262 254 250 249 245 246 247 249 248 250 248 245 242 243 247 250 253 244 239 239 241 238 237 242
Wind_Speed_850mb
17 16 14 9 3 5 7 7 12 14 11 9 17 16 25 30 11 13 38 30 28 29 23 18 18 17 17 20 19 20 20 18 13 11 12 17 25 26 32 30 36 36 37 35 33 31 31 31 31
15 16 9 9 5 8 6 14 9 17 20 16 14 4 16 12 14 34 35 22 32 20 19 18 16 15 17 21 23 21 17 14 12 19 21 26 24 22 36 33 31 37 34 34 34 33 33 33 33
14 18 9 4 7 6 7 3 23 27 20 15 9 15 13 10 27 31 33 32 27 26 19 20 16 15 20 23 21 21 19 12 22 28 34 32 29 26 34 34 28 33 33 34 34 34 35 35 36
19 7 10 4 16 8 11 12 36 24 6 5 7 21 16 12 24 22 46 36 29 23 22 21 20 22 23 20 21 21 23 28 30 32 34 34 30 24 34 33 29 28 31 34 33 35 37 38 37
14 13 5 10 19 11 11 13 34 16 24 16 7 14 18 19 16 35 40 38 32 27 21 22 22 28 24 19 17 17 27 26 27 29 31 30 31 26 29 27 28 29 30 32 32 33 35 35 36
11 10 7 10 18 12 12 7 13 18 18 18 7 21 12 16 32 43 34 37 31 27 26 25 27 31 26 20 13 17 27 26 27 27 25 28 30 28 25 27 27 28 28 29 29 30 31 33 35
8 11 12 19 16 12 10 12 14 16 16 15 9 12 15 26 40 43 45 31 31 26 23 27 28 31 28 23 18 15 24 25 23 21 21 24 26 25 24 27 27 25 26 26 27 28 30 31 31
15 11 20 19 18 1 13 16 5 14 13 20 7 12 13 42 51 44 45 29 30 25 20 27 28 30 28 24 20 20 20 25 25 20 18 22 23 22 22 23 24 23 23 23 24 25 26 28 27
16 8 13 24 13 1 21 9 1 14 17 9 5 3 11 46 59 49 50 33 32 31 26 24 28 26 28 25 22 21 21 24 23 22 21 21 18 17 20 20 20 20 20 20 20 20 22 23 23
7 7 15 12 12 9 23 17 22 8 20 11 10 14 20 54 65 58 56 51 44 40 31 29 31 26 23 28 25 22 22 22 22 21 20 17 13 16 16 16 16 16 16 17 17 15 14 15 16
5 20 13 4 14 9 2 11 25 13 14 27 34 35 36 60 61 63 50 51 56 51 39 33 34 34 27 28 27 25 24 22 22 22 19 17 16 14 14 13 14 12 12 13 11 10 13 12 11
7 9 11 4 3 3 4 6 12 20 2 4 37 30 45 59 56 60 54 44 48 50 44 38 36 37 30 28 26 24 22 23 23 21 21 19 16 11 11 9 10 9 8 8 7 7 7 9 10
12 7 11 2 1 6 6 9 11 25 23 9 34 35 42 53 50 44 49 43 42 46 46 43 42 37 35 31 28 25 26 26 25 24 20 17 15 13 11 9 7 5 5 4 4 4 4 6 6
29 24 14 10 1 6 5 11 5 20 21 22 30 33 37 47 52 48 52 50 47 46 52 53 47 42 37 36 33 32 30 28 25 22 21 18 15 14 13 11 8 7 7 7 7 4 2 3 4
11 14 4 13 12 6 5 8 11 22 28 30 33 31 32 40 49 54 54 57 52 52 57 57 56 53 49 45 41 36 34 31 26 24 23 21 18 16 15 14 11 9 9 9 9 8 6 3 2
17 6 8 11 17 10 13 21 25 37 29 32 35 38 39 38 53 55 49 55 55 55 54 59 59 59 54 51 48 42 38 35 32 32 28 25 23 22 20 19 16 14 14 13 13 9 4 3 4
10 7 12 13 40 9 14 9 14 16 24 30 40 43 47 42 40 45 54 53 59 60 60 54 57 57 54 51 47 43 39 39 37 34 33 30 28 27 24 23 21 19 19 18 13 8 7 6 6
20 9 19 16 19 12 13 18 10 26 25 27 31 45 47 46 50 51 59 61 60 58 60 57 57 57 54 52 48 48 46 43 42 41 38 36 34 33 30 23 22 25 26 23 18 15 11 8 9
33 24 18 24 18 13 25 25 25 33 28 28 29 35 46 48 43 51 53 59 57 59 63 60 60 60 59 59 60 58 57 54 51 48 44 42 40 37 31 22 22 22 25 26 21 22 17 15 14
18 27 20 15 12 8 14 28 27 32 37 44 42 38 38 40 44 50 55 60 63 68 68 68 68 63 63 63 61 60 57 57 51 49 49 47 48 40 35 30 30 29 24 30 30 23 21 23 20
29 27 17 11 10 6 8 13 18 18 48 54 58 49 44 44 44 46 52 60 63 71 72 75 72 68 69 67 63 60 57 56 57 57 57 56 54 46 41 38 36 34 35 32 30 29 32 30 27
10 3 13 22 13 4 12 10 14 27 37 38 56 63 66 61 51 58 59 62 66 72 73 71 72 73 71 69 70 72 73 73 69 65 61 60 57 51 47 43 45 43 44 45 38 42 40 39 37
4 19 19 14 10 7 10 5 10 3 25 37 49 62 65 74 70 62 64 70 64 67 74 77 79 77 74 75 75 76 76 74 70 66 63 61 55 54 53 47 42 48 47 47 47 50 46 43 40
25 25 22 13 7 5 14 11 9 9 9 8 25 62 73 72 69 72 71 68 66 65 71 78 83 81 77 78 79 81 81 79 75 72 67 65 60 61 61 56 53 49 43 45 48 48 48 45 47
5 17 6 3 3 10 3 12 24 15 16 2 13 21 32 64 68 69 75 72 69 70 70 74 78 83 85 85 85 86 84 82 82 78 74 73 68 66 68 64 61 56 53 49 44 47 50 55 57
32 5 10 14 9 5 3 14 10 12 19 21 28 29 27 9 55 62 65 69 71 73 68 72 78 81 85 85 90 89 88 87 87 84 81 79 81 76 68 67 67 67 62 54 56 50 49 53 55
12 8 5 12 4 6 10 11 13 23 15 17 16 12 14 14 8 17 44 53 63 68 72 70 73 80 84 87 88 89 90 89 90 88 83 85 85 82 74 70 73 77 73 69 67 62 56 52 53
13 16 8 2 10 8 10 8 11 9 11 13 12 23 20 12 17 24 28 38 45 51 58 65 73 76 78 82 87 89 91 91 91 89 88 89 88 80 77 73 71 77 82 78 75 69 66 61 54
10 11 8 11 7 8 0 9 7 14 10 5 15 11 13 10 11 16 19 22 27 33 41 48 56 66 73 77 81 86 91 92 91 92 90 89 82 77 80 80 73 71 84 86 85 74 74 63 57
8 15 8 9 9 6 7 11 9 14 13 13 21 13 8 17 19 20 25 20 10 9 24 35 43 50 55 66 74 77 84 84 86 89 90 89 82 80 80 80 79 69 73 88 89 79 80 63 64
Wind_Direction_850mb
331 350 344 332 294 194 235 99 81 92 99 39 64 28 94 56 23 108 126 167 161 155 150 144 116 108 117 139 145 132 119 120 108 156 124 96 99 95 97 93 89 85 81 80 78 80 80 81 83
328 349 356 300 251 252 58 117 143 95 98 108 87 39 56 80 70 131 137 149 144 141 141 128 111 111 123 136 156 159 155 144 143 111 129 106 100 100 100 93 88 87 83 82 80 80 81 82 81
311 329 301 228 262 308 108 200 98 99 126 144 108 52 42 83 120 138 147 141 146 159 146 127 123 119 114 116 131 155 169 153 115 114 109 110 102 100 117 102 97 89 89 84 83 82 81 81 81
336 277 263 265 267 64 57 103 112 123 130 169 115 92 87 97 125 159 139 156 157 160 141 135 128 119 110 103 102 107 111 117 120 114 119 115 113 105 111 107 99 91 91 87 83 80 79 79 80
296 272 267 215 258 105 76 32 139 172 153 164 221 123 97 142 142 150 152 141 174 156 151 135 125 120 117 100 99 115 117 114 120 111 120 122 112 107 117 108 97 90 86 84 83 81 79 80 80
283 248 250 240 249 119 101 155 173 176 143 110 170 106 132 174 150 151 152 161 179 157 160 142 136 133 135 129 100 111 120 129 109 109 114 119 115 112 106 112 100 91 87 87 85 84 82 79 77
253 273 249 271 277 118 142 167 209 166 143 165 119 99 144 168 156 163 158 179 165 166 168 149 148 148 145 142 130 117 112 113 113 120 110 116 123 117 109 104 103 95 92 91 87 82 80 78 78
283 261 268 264 269 169 112 156 224 155 103 115 190 152 166 171 161 171 162 177 170 173 175 162 154 162 161 155 139 131 137 133 127 116 113 105 107 107 105 100 98 92 90 89 87 84 83 79 76
292 249 232 244 244 170 142 143 178 81 113 107 152 90 194 173 166 162 162 167 172 171 176 168 157 162 176 169 155 142 133 138 135 126 120 112 115 111 109 104 100 96 96 94 94 90 85 85 76
257 250 229 299 315 5 146 192 152 145 145 142 114 131 165 162 169 170 174 179 170 169 177 181 157 170 175 170 164 155 149 144 143 139 130 126 125 110 112 114 111 109 107 101 100 94 89 81 70
198 244 305 21 12 41 71 208 153 201 175 201 172 167 164 165 177 175 174 192 185 173 177 185 179 178 179 164 168 163 166 159 164 160 151 154 147 137 129 118 113 119 119 112 106 98 79 75 76
215 260 314 66 296 280 306 286 189 212 106 347 184 200 176 176 178 185 181 196 189 181 178 182 189 183 180 175 174 169 176 174 174 172 168 164 160 148 131 129 119 129 116 111 112 103 94 86 79
224 178 218 180 212 262 276 271 233 218 232 130 164 188 184 182 184 190 185 195 196 189 183 187 194 187 184 185 181 187 187 185 182 183 177 170 164 170 170 158 163 136 150 155 148 136 92 82 79
213 181 178 195 301 214 241 228 154 249 216 160 185 190 193 188 186 189 191 195 200 198 188 193 196 187 194 189 188 198 199 194 197 195 189 186 188 190 192 188 188 191 204 200 199 193 166 106 53
183 164 151 217 228 225 205 259 206 238 204 172 187 195 199 195 191 198 199 196 205 205 197 201 195 196 190 192 191 207 205 205 205 206 206 208 212 213 214 213 218 220 214 203 184 164 151 135 357
168 165 172 208 179 216 157 242 227 236 187 188 193 195 200 210 199 200 203 206 207 202 209 211 205 202 206 203 202 202 205 208 210 214 217 218 224 228 230 231 230 230 214 204 190 175 189 205 303
210 177 190 150 197 147 178 229 216 162 188 211 206 205 200 204 211 208 201 216 212 208 212 213 211 211 212 213 208 216 216 215 217 221 226 226 228 235 238 242 241 236 225 218 206 216 225 257 269
156 192 211 205 182 185 190 247 169 192 193 222 234 208 201 200 211 213 203 212 215 216 215 218 213 213 214 216 213 216 224 227 225 229 234 236 235 238 240 245 257 245 231 215 221 234 246 267 288
175 190 184 200 175 154 219 235 235 227 184 205 228 246 206 209 210 214 218 220 210 213 216 220 217 214 213 214 214 216 222 224 224 229 233 237 242 236 237 248 261 245 237 221 233 235 252 255 261
224 188 204 89 146 178 224 240 236 231 239 224 213 219 239 211 208 214 213 218 215 216 216 218 222 219 220 221 222 223 226 230 234 236 237 238 242 242 241 235 249 245 241 236 239 246 253 259 255
209 204 190 131 146 270 338 270 245 242 227 236 233 219 221 227 215 213 215 224 218 217 221 221 225 225 225 226 225 227 230 234 236 235 238 239 241 242 242 241 242 245 241 242 252 254 254 258 255
193 6 92 119 154 223 169 287 226 220 222 219 225 225 218 214 211 210 215 222 225 226 219 224 227 228 230 229 228 230 232 233 239 242 243 242 244 241 239 251 245 241 240 242 251 251 250 252 255
180 100 97 95 86 4 182 276 253 301 212 220 219 226 224 221 214 209 214 225 232 226 220 221 226 231 230 233 234 234 236 239 242 245 245 244 244 237 239 242 246 241 240 249 252 252 249 248 257
150 99 72 62 78 260 196 183 260 226 220 228 204 220 225 226 225 224 221 225 232 230 226 225 228 230 230 233 235 237 239 240 240 242 242 246 243 237 237 238 240 239 243 250 251 254 254 255 261
308 158 88 104 179 226 109 211 245 277 282 294 290 265 248 229 227 224 224 222 229 229 229 228 228 231 231 231 236 240 240 242 246 247 247 248 245 239 236 238 238 233 241 246 248 256 258 257 261
188 239 144 181 184 188 312 234 242 254 260 258 257 249 261 332 225 225 227 228 230 234 234 234 233 235 234 234 236 240 244 244 245 248 249 247 252 252 248 243 242 239 240 242 241 252 256 257 256
184 187 78 107 39 67 203 262 289 264 272 253 262 239 247 262 223 215 229 237 233 235 240 241 241 241 240 239 240 240 243 246 246 248 247 247 251 254 252 245 243 242 243 241 243 245 248 254 259
166 141 92 305 137 227 242 240 228 231 247 233 210 228 219 238 252 243 247 248 242 244 244 244 248 249 248 246 243 245 246 248 251 250 247 247 248 247 250 250 248 244 241 242 243 242 240 243 248
151 177 187 143 172 170 253 256 229 189 163 134 155 135 160 180 200 213 227 241 240 239 245 250 247 248 250 250 247 248 249 249 250 252 252 247 242 239 242 251 252 249 241 240 239 238 239 240 240
233 166 166 164 224 220 132 270 183 158 168 143 133 121 138 109 93 90 69 49 21 303 271 264 265 262 254 250 249 245 246 247 249 248 250 248 245 242 243 247 250 253 244 239 239 241 238 237 242